Time,TemperatureF,DewpointF,PressureIn,WindDirection,WindDirectionDegrees,WindSpeedMPH,WindSpeedGustMPH,Humidity,HourlyPrecipIn,Conditions,Clouds,dailyrainin,SoftwareType,DateUTC
2013-02-07 00:02:00,35.0,31.0,-100.00,North,355,2.0,4.0,82,0.00,,,-99.99,,2013-02-07 06:02:00,
2013-02-07 00:11:00,35.0,30.0,-100.00,NNW,330,0.0,3.0,82,0.00,,,-99.99,,2013-02-07 06:11:00,
2013-02-07 00:22:00,33.0,29.0,-100.00,SE,125,2.0,3.0,83,0.00,,,-99.99,,2013-02-07 06:22:00,
2013-02-07 00:32:00,32.0,29.0,-100.00,SE,130,0.0,2.0,85,0.00,,,-99.99,,2013-02-07 06:32:00,
2013-02-07 00:43:00,32.0,29.0,-100.00,SE,130,0.0,2.0,85,0.00,,,-99.99,,2013-02-07 06:43:00,
2013-02-07 00:52:00,33.0,29.0,-100.00,SE,125,2.0,2.0,87,0.00,,,-99.99,,2013-02-07 06:52:00,
2013-02-07 01:01:00,33.0,29.0,-100.00,SE,125,2.0,2.0,87,0.00,,,-99.99,,2013-02-07 07:01:00,
2013-02-07 01:11:00,33.0,30.0,-100.00,SSE,155,2.0,4.0,87,0.00,,,-99.99,,2013-02-07 07:11:00,
2013-02-07 01:22:00,33.0,30.0,-100.00,SE,145,1.0,2.0,88,0.00,,,-99.99,,2013-02-07 07:22:00,
2013-02-07 01:32:00,33.0,30.0,-100.00,SSE,150,2.0,3.0,89,0.00,,,-99.99,,2013-02-07 07:32:00,
2013-02-07 01:41:00,33.0,30.0,-100.00,SSE,150,2.0,3.0,89,0.00,,,-99.99,,2013-02-07 07:41:00,
2013-02-07 01:52:00,33.0,30.0,-100.00,SSE,150,0.0,1.0,89,0.00,,,-99.99,,2013-02-07 07:52:00,
2013-02-07 02:01:00,33.0,30.0,-100.00,SSE,150,0.0,1.0,89,0.00,,,-99.99,,2013-02-07 08:01:00,
2013-02-07 02:11:00,33.0,31.0,-100.00,North,350,1.0,1.0,90,0.00,,,-99.99,,2013-02-07 08:11:00,
2013-02-07 02:21:00,33.0,30.0,-100.00,NNW,340,4.0,6.0,90,0.00,,,-99.99,,2013-02-07 08:21:00,
2013-02-07 02:32:00,32.0,29.0,-100.00,NNW,335,4.0,7.0,91,0.00,,,-99.99,,2013-02-07 08:32:00,
2013-02-07 02:42:00,32.0,29.0,-100.00,NNW,335,4.0,7.0,91,0.00,,,-99.99,,2013-02-07 08:42:00,
2013-02-07 02:52:00,33.0,31.0,-100.00,North,5,5.0,9.0,91,0.00,,,-99.99,,2013-02-07 08:52:00,
2013-02-07 03:01:00,33.0,31.0,-100.00,North,5,5.0,9.0,91,0.00,,,-99.99,,2013-02-07 09:01:00,
2013-02-07 03:11:00,33.0,31.0,-100.00,North,355,6.0,9.0,91,0.00,,,-99.99,,2013-02-07 09:11:00,
2013-02-07 03:21:00,32.0,30.0,-100.00,North,0,4.0,9.0,91,0.00,,,-99.99,,2013-02-07 09:21:00,
2013-02-07 03:32:00,32.0,29.0,-100.00,NNW,345,6.0,9.0,91,0.00,,,-99.99,,2013-02-07 09:32:00,
2013-02-07 03:41:00,32.0,29.0,-100.00,NNW,345,6.0,9.0,91,0.00,,,-99.99,,2013-02-07 09:41:00,
2013-02-07 03:51:00,31.0,29.0,-100.00,North,0,9.0,15.0,91,0.00,,,-99.99,,2013-02-07 09:51:00,
2013-02-07 04:01:00,31.0,29.0,-100.00,North,0,9.0,15.0,91,0.00,,,-99.99,,2013-02-07 10:01:00,
2013-02-07 04:11:00,31.0,29.0,-100.00,North,355,9.0,16.0,91,0.00,,,-99.99,,2013-02-07 10:11:00,
2013-02-07 04:22:00,30.0,28.0,-100.00,North,0,7.0,14.0,91,0.00,,,-99.99,,2013-02-07 10:22:00,
2013-02-07 04:32:00,29.0,27.0,-100.00,NNW,345,9.0,17.0,92,0.00,,,-99.99,,2013-02-07 10:32:00,
2013-02-07 04:41:00,29.0,27.0,-100.00,NNW,345,9.0,17.0,92,0.00,,,-99.99,,2013-02-07 10:41:00,
2013-02-07 04:51:00,28.0,27.0,-100.00,North,10,7.0,14.0,92,0.00,,,-99.99,,2013-02-07 10:51:00,
2013-02-07 05:01:00,28.0,27.0,-100.00,North,10,7.0,14.0,92,0.00,,,-99.99,,2013-02-07 11:01:00,
2013-02-07 05:11:00,28.0,27.0,-100.00,North,0,7.0,18.0,93,0.00,,,-99.99,,2013-02-07 11:11:00,
2013-02-07 05:22:00,28.0,27.0,-100.00,North,350,10.0,19.0,93,0.00,,,-99.99,,2013-02-07 11:22:00,
2013-02-07 05:32:00,28.0,26.0,-100.00,North,5,7.0,14.0,93,0.00,,,-99.99,,2013-02-07 11:32:00,
2013-02-07 05:44:00,28.0,26.0,-100.00,North,5,7.0,14.0,93,0.00,,,-99.99,,2013-02-07 11:44:00,
2013-02-07 05:52:00,27.0,26.0,-100.00,North,350,7.0,17.0,93,0.00,,,-99.99,,2013-02-07 11:52:00,
2013-02-07 06:02:00,27.0,26.0,-100.00,North,350,7.0,17.0,93,0.00,,,-99.99,,2013-02-07 12:02:00,
2013-02-07 06:11:00,27.0,26.0,-100.00,North,355,12.0,21.0,93,0.00,,,-99.99,,2013-02-07 12:11:00,
2013-02-07 06:22:00,27.0,26.0,-100.00,NNW,340,9.0,16.0,94,0.00,,,-99.99,,2013-02-07 12:22:00,
2013-02-07 06:32:00,26.0,25.0,-100.00,North,0,6.0,15.0,94,0.00,,,-99.99,,2013-02-07 12:32:00,
2013-02-07 06:42:00,26.0,25.0,-100.00,North,0,6.0,15.0,94,0.00,,,-99.99,,2013-02-07 12:42:00,
2013-02-07 06:52:00,26.0,24.0,-100.00,NNW,345,7.0,15.0,94,0.00,,,-99.99,,2013-02-07 12:52:00,
2013-02-07 07:02:00,26.0,24.0,-100.00,NNW,345,7.0,15.0,94,0.00,,,-99.99,,2013-02-07 13:02:00,
2013-02-07 07:12:00,26.0,24.0,-100.00,North,0,6.0,15.0,94,0.00,,,-99.99,,2013-02-07 13:12:00,
2013-02-07 07:22:00,25.0,24.0,-100.00,North,0,8.0,12.0,94,0.00,,,-99.99,,2013-02-07 13:22:00,
2013-02-07 07:32:00,25.0,24.0,-100.00,North,5,5.0,11.0,93,0.00,,,-99.99,,2013-02-07 13:32:00,
2013-02-07 07:42:00,25.0,24.0,-100.00,North,5,5.0,11.0,93,0.00,,,-99.99,,2013-02-07 13:42:00,
2013-02-07 07:51:00,25.0,24.0,-100.00,North,0,6.0,11.0,93,0.00,,,-99.99,,2013-02-07 13:51:00,
2013-02-07 08:01:00,25.0,24.0,-100.00,North,0,6.0,11.0,93,0.00,,,-99.99,,2013-02-07 14:01:00,
2013-02-07 08:11:00,25.0,24.0,-100.00,North,5,6.0,11.0,93,0.00,,,-99.99,,2013-02-07 14:11:00,
2013-02-07 08:21:00,25.0,24.0,-100.00,North,0,6.0,12.0,93,0.00,,,-99.99,,2013-02-07 14:21:00,
2013-02-07 08:32:00,25.0,24.0,-100.00,NNW,345,6.0,12.0,93,0.00,,,-99.99,,2013-02-07 14:32:00,
2013-02-07 08:41:00,25.0,24.0,-100.00,NNW,345,6.0,12.0,93,0.00,,,-99.99,,2013-02-07 14:41:00,
2013-02-07 08:52:00,25.0,24.0,-100.00,North,0,6.0,14.0,93,0.00,,,-99.99,,2013-02-07 14:52:00,
2013-02-07 09:02:00,25.0,24.0,-100.00,North,0,6.0,14.0,93,0.00,,,-99.99,,2013-02-07 15:02:00,
2013-02-07 09:11:00,25.0,24.0,-100.00,North,350,10.0,15.0,93,0.00,,,-99.99,,2013-02-07 15:11:00,
2013-02-07 09:22:00,25.0,24.0,-100.00,North,0,7.0,14.0,93,0.00,,,-99.99,,2013-02-07 15:22:00,
2013-02-07 09:32:00,25.0,24.0,-100.00,North,350,8.0,12.0,93,0.00,,,-99.99,,2013-02-07 15:32:00,
2013-02-07 09:42:00,25.0,24.0,-100.00,North,350,8.0,12.0,93,0.00,,,-99.99,,2013-02-07 15:42:00,
2013-02-07 09:52:00,25.0,24.0,-100.00,NNW,345,9.0,14.0,93,0.00,,,-99.99,,2013-02-07 15:52:00,
2013-02-07 10:01:00,25.0,24.0,-100.00,NNW,345,9.0,14.0,93,0.00,,,-99.99,,2013-02-07 16:01:00,
2013-02-07 10:11:00,25.0,24.0,-100.00,NNW,345,9.0,16.0,93,0.00,,,-99.99,,2013-02-07 16:11:00,
2013-02-07 10:21:00,25.0,24.0,-100.00,NNW,335,11.0,16.0,93,0.00,,,-99.99,,2013-02-07 16:21:00,
2013-02-07 10:32:00,25.0,24.0,-100.00,NNW,335,12.0,16.0,93,0.00,,,-99.99,,2013-02-07 16:32:00,
2013-02-07 10:41:00,25.0,24.0,-100.00,NNW,335,12.0,16.0,93,0.00,,,-99.99,,2013-02-07 16:41:00,
2013-02-07 10:52:00,25.0,23.0,-100.00,NNW,335,10.0,17.0,93,0.00,,,-99.99,,2013-02-07 16:52:00,
2013-02-07 11:01:00,25.0,23.0,-100.00,NNW,335,10.0,17.0,93,0.00,,,-99.99,,2013-02-07 17:01:00,
2013-02-07 11:11:00,25.0,23.0,-100.00,NNW,330,10.0,16.0,93,0.00,,,-99.99,,2013-02-07 17:11:00,
2013-02-07 11:21:00,25.0,23.0,-100.00,NNW,340,7.0,19.0,93,0.00,,,-99.99,,2013-02-07 17:21:00,
2013-02-07 11:32:00,25.0,23.0,-100.00,NNW,340,9.0,16.0,93,0.00,,,-99.99,,2013-02-07 17:32:00,
2013-02-07 11:42:00,25.0,23.0,-100.00,NNW,340,9.0,16.0,93,0.00,,,-99.99,,2013-02-07 17:42:00,
2013-02-07 11:52:00,26.0,24.0,-100.00,NNW,330,11.0,18.0,93,0.00,,,-99.99,,2013-02-07 17:52:00,
2013-02-07 12:01:00,26.0,24.0,-100.00,NNW,330,11.0,18.0,93,0.00,,,-99.99,,2013-02-07 18:01:00,
2013-02-07 12:11:00,25.0,24.0,-100.00,NNW,335,9.0,20.0,92,0.00,,,-99.99,,2013-02-07 18:11:00,
2013-02-07 12:23:00,25.0,23.0,-100.00,North,0,12.0,19.0,92,0.00,,,-99.99,,2013-02-07 18:23:00,
2013-02-07 12:32:00,25.0,23.0,-100.00,North,350,14.0,21.0,91,0.00,,,-99.99,,2013-02-07 18:32:00,
2013-02-07 12:41:00,25.0,23.0,-100.00,North,350,14.0,21.0,91,0.00,,,-99.99,,2013-02-07 18:41:00,
2013-02-07 12:51:00,26.0,23.0,-100.00,North,0,11.0,18.0,90,0.00,,,-99.99,,2013-02-07 18:51:00,
2013-02-07 13:01:00,26.0,23.0,-100.00,North,0,11.0,18.0,90,0.00,,,-99.99,,2013-02-07 19:01:00,
2013-02-07 13:11:00,26.0,23.0,-100.00,NNW,340,11.0,17.0,89,0.00,,,-99.99,,2013-02-07 19:11:00,
2013-02-07 13:22:00,26.0,23.0,-100.00,NNW,345,14.0,21.0,89,0.00,,,-99.99,,2013-02-07 19:22:00,
2013-02-07 13:32:00,26.0,23.0,-100.00,NNW,340,11.0,19.0,89,0.00,,,-99.99,,2013-02-07 19:32:00,
2013-02-07 13:41:00,26.0,23.0,-100.00,NNW,340,11.0,19.0,89,0.00,,,-99.99,,2013-02-07 19:41:00,
2013-02-07 13:51:00,26.0,23.0,-100.00,NNW,335,13.0,18.0,88,0.00,,,-99.99,,2013-02-07 19:51:00,
2013-02-07 14:01:00,26.0,23.0,-100.00,NNW,335,13.0,18.0,88,0.00,,,-99.99,,2013-02-07 20:01:00,
2013-02-07 14:11:00,26.0,23.0,-100.00,NNW,340,12.0,21.0,88,0.00,,,-99.99,,2013-02-07 20:11:00,
2013-02-07 14:21:00,26.0,23.0,-100.00,NNW,345,11.0,17.0,88,0.00,,,-99.99,,2013-02-07 20:21:00,
2013-02-07 14:31:00,26.0,23.0,-100.00,NNW,335,12.0,19.0,88,0.00,,,-99.99,,2013-02-07 20:31:00,
2013-02-07 14:41:00,26.0,23.0,-100.00,NNW,335,12.0,19.0,88,0.00,,,-99.99,,2013-02-07 20:41:00,
2013-02-07 14:52:00,26.0,22.0,-100.00,NNW,345,11.0,21.0,87,0.00,,,-99.99,,2013-02-07 20:52:00,
2013-02-07 15:02:00,26.0,22.0,-100.00,NNW,345,11.0,21.0,87,0.00,,,-99.99,,2013-02-07 21:02:00,
2013-02-07 15:11:00,26.0,22.0,-100.00,NNW,345,11.0,17.0,87,0.00,,,-99.99,,2013-02-07 21:11:00,
2013-02-07 15:21:00,26.0,22.0,-100.00,NNW,335,12.0,21.0,87,0.00,,,-99.99,,2013-02-07 21:21:00,
2013-02-07 15:32:00,26.0,22.0,-100.00,NW,320,12.0,18.0,87,0.00,,,-99.99,,2013-02-07 21:32:00,
2013-02-07 15:42:00,26.0,22.0,-100.00,NW,320,12.0,18.0,87,0.00,,,-99.99,,2013-02-07 21:42:00,
2013-02-07 15:51:00,26.0,22.0,-100.00,North,0,9.0,17.0,87,0.00,,,-99.99,,2013-02-07 21:51:00,
2013-02-07 16:02:00,26.0,22.0,-100.00,North,0,9.0,17.0,87,0.00,,,-99.99,,2013-02-07 22:02:00,
2013-02-07 16:11:00,25.0,22.0,-100.00,NNW,340,12.0,20.0,87,0.00,,,-99.99,,2013-02-07 22:11:00,
2013-02-07 16:21:00,25.0,22.0,-100.00,North,355,9.0,20.0,87,0.00,,,-99.99,,2013-02-07 22:21:00,
2013-02-07 16:32:00,25.0,22.0,-100.00,NNW,330,12.0,18.0,87,0.00,,,-99.99,,2013-02-07 22:32:00,
2013-02-07 16:42:00,25.0,22.0,-100.00,NNW,330,12.0,18.0,87,0.00,,,-99.99,,2013-02-07 22:42:00,
2013-02-07 16:51:00,25.0,22.0,-100.00,NNW,340,11.0,19.0,87,0.00,,,-99.99,,2013-02-07 22:51:00,
2013-02-07 17:01:00,25.0,22.0,-100.00,NNW,340,11.0,19.0,87,0.00,,,-99.99,,2013-02-07 23:01:00,
2013-02-07 17:11:00,25.0,22.0,-100.00,NNW,340,11.0,17.0,88,0.00,,,-99.99,,2013-02-07 23:11:00,
2013-02-07 17:21:00,25.0,22.0,-100.00,NNW,335,10.0,17.0,88,0.00,,,-99.99,,2013-02-07 23:21:00,
2013-02-07 17:32:00,25.0,22.0,-100.00,NNW,330,10.0,19.0,89,0.00,,,-99.99,,2013-02-07 23:32:00,
2013-02-07 17:41:00,25.0,22.0,-100.00,NNW,330,10.0,19.0,89,0.00,,,-99.99,,2013-02-07 23:41:00,
2013-02-07 17:52:00,25.0,23.0,-100.00,NNW,335,11.0,21.0,90,0.00,,,-99.99,,2013-02-07 23:52:00,
2013-02-07 18:01:00,25.0,23.0,-100.00,NNW,335,11.0,21.0,90,0.00,,,-99.99,,2013-02-08 00:01:00,
2013-02-07 18:11:00,25.0,22.0,-100.00,NNW,340,10.0,17.0,90,0.00,,,-99.99,,2013-02-08 00:11:00,
2013-02-07 18:21:00,25.0,22.0,-100.00,NNW,335,10.0,17.0,90,0.00,,,-99.99,,2013-02-08 00:21:00,
2013-02-07 18:32:00,25.0,23.0,-100.00,North,0,7.0,17.0,90,0.00,,,-99.99,,2013-02-08 00:32:00,
2013-02-07 18:41:00,25.0,23.0,-100.00,North,0,7.0,17.0,90,0.00,,,-99.99,,2013-02-08 00:41:00,
2013-02-07 18:52:00,25.0,23.0,-100.00,North,0,8.0,14.0,91,0.00,,,-99.99,,2013-02-08 00:52:00,
2013-02-07 19:01:00,25.0,23.0,-100.00,North,0,8.0,14.0,91,0.00,,,-99.99,,2013-02-08 01:01:00,
2013-02-07 19:11:00,25.0,23.0,-100.00,North,0,9.0,17.0,91,0.00,,,-99.99,,2013-02-08 01:11:00,
2013-02-07 19:21:00,25.0,23.0,-100.00,North,350,9.0,16.0,91,0.00,,,-99.99,,2013-02-08 01:21:00,
2013-02-07 19:31:00,25.0,23.0,-100.00,North,0,6.0,12.0,90,0.00,,,-99.99,,2013-02-08 01:31:00,
2013-02-07 19:41:00,25.0,23.0,-100.00,North,0,6.0,12.0,90,0.00,,,-99.99,,2013-02-08 01:41:00,
2013-02-07 19:51:00,25.0,23.0,-100.00,North,350,4.0,12.0,89,0.00,,,-99.99,,2013-02-08 01:51:00,
2013-02-07 20:01:00,25.0,23.0,-100.00,North,350,4.0,12.0,89,0.00,,,-99.99,,2013-02-08 02:01:00,
2013-02-07 20:11:00,26.0,23.0,-100.00,North,0,6.0,15.0,89,0.00,,,-99.99,,2013-02-08 02:11:00,
2013-02-07 20:21:00,26.0,23.0,-100.00,North,350,9.0,15.0,88,0.00,,,-99.99,,2013-02-08 02:21:00,
2013-02-07 20:32:00,26.0,22.0,-100.00,North,0,7.0,22.0,87,0.00,,,-99.99,,2013-02-08 02:32:00,
2013-02-07 20:42:00,26.0,22.0,-100.00,North,5,7.0,16.0,87,0.00,,,-99.99,,2013-02-08 02:42:00,
2013-02-07 20:52:00,25.0,22.0,-100.00,North,0,6.0,12.0,87,0.00,,,-99.99,,2013-02-08 02:52:00,
2013-02-07 21:01:00,25.0,22.0,-100.00,North,0,6.0,12.0,87,0.00,,,-99.99,,2013-02-08 03:01:00,
2013-02-07 21:12:00,25.0,22.0,-100.00,North,350,7.0,14.0,87,0.00,,,-99.99,,2013-02-08 03:12:00,
2013-02-07 21:22:00,25.0,22.0,-100.00,North,0,5.0,12.0,87,0.00,,,-99.99,,2013-02-08 03:22:00,
2013-02-07 21:32:00,25.0,21.0,-100.00,North,350,7.0,12.0,87,0.00,,,-99.99,,2013-02-08 03:32:00,
2013-02-07 21:41:00,25.0,21.0,-100.00,North,350,7.0,12.0,87,0.00,,,-99.99,,2013-02-08 03:41:00,
2013-02-07 21:51:00,24.0,21.0,-100.00,North,0,4.0,12.0,87,0.00,,,-99.99,,2013-02-08 03:51:00,
2013-02-07 22:01:00,24.0,21.0,-100.00,NNE,20,4.0,12.0,87,0.00,,,-99.99,,2013-02-08 04:01:00,
2013-02-07 22:11:00,24.0,21.0,-100.00,North,0,4.0,9.0,87,0.00,,,-99.99,,2013-02-08 04:11:00,
2013-02-07 22:21:00,24.0,21.0,-100.00,North,5,5.0,13.0,87,0.00,,,-99.99,,2013-02-08 04:21:00,
2013-02-07 22:32:00,23.0,20.0,-100.00,NNE,15,5.0,10.0,88,0.00,,,-99.99,,2013-02-08 04:32:00,
2013-02-07 22:41:00,23.0,20.0,-100.00,NNE,15,5.0,10.0,88,0.00,,,-99.99,,2013-02-08 04:41:00,
2013-02-07 22:51:00,23.0,21.0,-100.00,North,0,4.0,10.0,89,0.00,,,-99.99,,2013-02-08 04:51:00,
2013-02-07 23:02:00,23.0,20.0,-100.00,North,0,7.0,13.0,89,0.00,,,-99.99,,2013-02-08 05:02:00,
2013-02-07 23:11:00,23.0,20.0,-100.00,NE,40,3.0,12.0,89,0.00,,,-99.99,,2013-02-08 05:11:00,
2013-02-07 23:22:00,23.0,20.0,-100.00,NE,40,6.0,10.0,89,0.00,,,-99.99,,2013-02-08 05:22:00,
2013-02-07 23:32:00,23.0,20.0,-100.00,North,0,3.0,7.0,89,0.00,,,-99.99,,2013-02-08 05:32:00,
2013-02-07 23:41:00,23.0,20.0,-100.00,North,0,3.0,7.0,89,0.00,,,-99.99,,2013-02-08 05:41:00,
2013-02-07 23:52:00,23.0,20.0,-100.00,NNW,340,7.0,12.0,89,0.00,,,-99.99,,2013-02-08 05:52:00,